Year,Month,Day,Hour,Minute,Value (Times are PST for temperature in C)
2013,08,23,00,00,15.60
2013,08,23,00,01,15.60
2013,08,23,00,02,15.50
2013,08,23,00,03,15.50
2013,08,23,00,04,15.50
2013,08,23,00,05,15.50
2013,08,23,00,06,15.50
2013,08,23,00,07,15.40
2013,08,23,00,08,15.40
2013,08,23,00,09,15.40
2013,08,23,00,10,15.30
2013,08,23,00,11,15.30
2013,08,23,00,12,15.30
2013,08,23,00,13,15.20
2013,08,23,00,14,15.20
2013,08,23,00,15,15.20
2013,08,23,00,16,15.20
2013,08,23,00,17,15.20
2013,08,23,00,18,15.10
2013,08,23,00,19,15.10
2013,08,23,00,20,15.10
2013,08,23,00,21,15.10
2013,08,23,00,22,15.10
2013,08,23,00,23,15.10
2013,08,23,00,24,15.10
2013,08,23,00,25,15.10
2013,08,23,00,26,15.10
2013,08,23,00,27,15.10
2013,08,23,00,28,15.10
2013,08,23,00,29,15.10
2013,08,23,00,30,15.10
2013,08,23,00,31,15.10
2013,08,23,00,32,15.10
2013,08,23,00,33,15.00
2013,08,23,00,34,14.90
2013,08,23,00,35,14.90
2013,08,23,00,36,14.80
2013,08,23,00,37,14.80
2013,08,23,00,38,14.80
2013,08,23,00,39,14.80
2013,08,23,00,40,14.70
2013,08,23,00,41,14.70
2013,08,23,00,42,14.70
2013,08,23,00,43,14.70
2013,08,23,00,44,14.70
2013,08,23,00,45,14.70
2013,08,23,00,46,14.70
2013,08,23,00,47,14.70
2013,08,23,00,48,14.70
2013,08,23,00,49,14.60
2013,08,23,00,50,14.60
2013,08,23,00,51,14.60
2013,08,23,00,52,14.60
2013,08,23,00,53,14.60
2013,08,23,00,54,14.60
2013,08,23,00,55,14.60
2013,08,23,00,56,14.70
2013,08,23,00,57,14.70
2013,08,23,00,58,14.70
2013,08,23,00,59,14.70
2013,08,23,01,00,14.80
2013,08,23,01,01,14.80
2013,08,23,01,02,14.80
2013,08,23,01,03,14.80
2013,08,23,01,04,14.80
2013,08,23,01,05,14.80
2013,08,23,01,06,14.80
2013,08,23,01,07,14.80
2013,08,23,01,08,14.80
2013,08,23,01,09,14.80
2013,08,23,01,10,14.70
2013,08,23,01,11,14.70
2013,08,23,01,12,14.70
2013,08,23,01,13,14.70
2013,08,23,01,14,14.60
2013,08,23,01,15,14.50
2013,08,23,01,16,14.30
2013,08,23,01,17,14.20
2013,08,23,01,18,14.00
2013,08,23,01,19,13.90
2013,08,23,01,20,13.90
2013,08,23,01,21,13.80
2013,08,23,01,22,13.80
2013,08,23,01,23,13.80
2013,08,23,01,24,13.80
2013,08,23,01,25,13.80
2013,08,23,01,26,13.80
2013,08,23,01,27,13.80
2013,08,23,01,28,13.70
2013,08,23,01,29,13.70
2013,08,23,01,30,13.70
2013,08,23,01,31,13.70
2013,08,23,01,32,13.70
2013,08,23,01,33,13.70
2013,08,23,01,34,13.70
2013,08,23,01,35,13.70
2013,08,23,01,36,13.70
2013,08,23,01,37,13.70
2013,08,23,01,38,13.70
2013,08,23,01,39,13.70
2013,08,23,01,40,13.70
2013,08,23,01,41,13.70
2013,08,23,01,42,13.80
2013,08,23,01,43,13.80
2013,08,23,01,44,13.80
2013,08,23,01,45,13.80
2013,08,23,01,46,13.80
2013,08,23,01,47,13.80
2013,08,23,01,48,13.80
2013,08,23,01,49,13.80
2013,08,23,01,50,13.80
2013,08,23,01,51,13.80
2013,08,23,01,52,13.80
2013,08,23,01,53,13.80
2013,08,23,01,54,13.80
2013,08,23,01,55,13.80
2013,08,23,01,56,13.80
2013,08,23,01,57,13.80
2013,08,23,01,58,13.80
2013,08,23,01,59,13.80
2013,08,23,02,00,13.80
2013,08,23,02,01,13.80
2013,08,23,02,02,13.80
2013,08,23,02,03,13.80
2013,08,23,02,04,13.70
2013,08,23,02,05,13.70
2013,08,23,02,06,13.70
2013,08,23,02,07,13.70
2013,08,23,02,08,13.70
2013,08,23,02,09,13.70
2013,08,23,02,10,13.70
2013,08,23,02,11,13.70
2013,08,23,02,12,13.70
2013,08,23,02,13,13.70
2013,08,23,02,14,13.70
2013,08,23,02,15,13.70
2013,08,23,02,16,13.70
2013,08,23,02,17,13.70
2013,08,23,02,18,13.70
2013,08,23,02,19,13.70
2013,08,23,02,20,13.70
2013,08,23,02,21,13.70
2013,08,23,02,22,13.70
2013,08,23,02,23,13.70
2013,08,23,02,24,13.60
2013,08,23,02,25,13.60
2013,08,23,02,26,13.60
2013,08,23,02,27,13.60
2013,08,23,02,28,13.60
2013,08,23,02,29,13.60
2013,08,23,02,30,13.60
2013,08,23,02,31,13.60
2013,08,23,02,32,13.60
2013,08,23,02,33,13.60
2013,08,23,02,34,13.60
2013,08,23,02,35,13.60
2013,08,23,02,36,13.60
2013,08,23,02,37,13.60
2013,08,23,02,38,13.60
2013,08,23,02,39,13.60
2013,08,23,02,40,13.70
2013,08,23,02,41,13.70
2013,08,23,02,42,13.70
2013,08,23,02,43,13.70
2013,08,23,02,44,13.80
2013,08,23,02,45,13.80
2013,08,23,02,46,13.80
2013,08,23,02,47,13.80
2013,08,23,02,48,13.80
2013,08,23,02,49,13.80
2013,08,23,02,50,13.80
2013,08,23,02,51,13.80
2013,08,23,02,52,13.80
2013,08,23,02,53,13.80
2013,08,23,02,54,13.80
2013,08,23,02,55,13.80
2013,08,23,02,56,13.80
2013,08,23,02,57,13.80
2013,08,23,02,58,13.80
2013,08,23,02,59,13.80
2013,08,23,03,00,13.80
2013,08,23,03,01,13.70
2013,08,23,03,02,13.70
2013,08,23,03,03,13.70
2013,08,23,03,04,13.60
2013,08,23,03,05,13.60
2013,08,23,03,06,13.50
2013,08,23,03,07,13.50
2013,08,23,03,08,13.40
2013,08,23,03,09,13.30
2013,08,23,03,10,13.30
2013,08,23,03,11,13.20
2013,08,23,03,12,13.20
2013,08,23,03,13,13.10
2013,08,23,03,14,13.10
2013,08,23,03,15,13.10
2013,08,23,03,16,13.10
2013,08,23,03,17,13.10
2013,08,23,03,18,13.10
2013,08,23,03,19,13.10
2013,08,23,03,20,13.10
2013,08,23,03,21,13.10
2013,08,23,03,22,13.10
2013,08,23,03,23,13.10
2013,08,23,03,24,13.10
2013,08,23,03,25,13.10
2013,08,23,03,26,13.10
2013,08,23,03,27,13.10
2013,08,23,03,28,13.20
2013,08,23,03,29,13.20
2013,08,23,03,30,13.20
2013,08,23,03,31,13.20
2013,08,23,03,32,13.20
2013,08,23,03,33,13.20
2013,08,23,03,34,13.30
2013,08,23,03,35,13.30
2013,08,23,03,36,13.30
2013,08,23,03,37,13.30
2013,08,23,03,38,13.30
2013,08,23,03,39,13.30
2013,08,23,03,40,13.30
2013,08,23,03,41,13.30
2013,08,23,03,42,13.30
2013,08,23,03,43,13.30
2013,08,23,03,44,13.30
2013,08,23,03,45,13.30
2013,08,23,03,46,13.40
2013,08,23,03,47,13.40
2013,08,23,03,48,13.40
2013,08,23,03,49,13.40
2013,08,23,03,50,13.40
2013,08,23,03,51,13.40
2013,08,23,03,52,13.40
2013,08,23,03,53,13.40
2013,08,23,03,54,13.40
2013,08,23,03,55,13.50
2013,08,23,03,56,13.50
2013,08,23,03,57,13.50
2013,08,23,03,58,13.50
2013,08,23,03,59,13.50
2013,08,23,04,00,13.50
2013,08,23,04,01,13.50
2013,08,23,04,02,13.50
2013,08,23,04,03,13.50
2013,08,23,04,04,13.50
2013,08,23,04,05,13.50
2013,08,23,04,06,13.40
2013,08,23,04,07,13.40
2013,08,23,04,08,13.40
2013,08,23,04,09,13.30
2013,08,23,04,10,13.30
2013,08,23,04,11,13.20
2013,08,23,04,12,13.20
2013,08,23,04,13,13.10
2013,08,23,04,14,13.10
2013,08,23,04,15,13.10
2013,08,23,04,16,13.10
2013,08,23,04,17,13.00
2013,08,23,04,18,13.00
2013,08,23,04,19,13.00
2013,08,23,04,20,13.00
2013,08,23,04,21,13.10
2013,08,23,04,22,13.00
2013,08,23,04,23,13.00
2013,08,23,04,24,13.00
2013,08,23,04,25,13.00
2013,08,23,04,26,13.00
2013,08,23,04,27,13.00
2013,08,23,04,28,13.00
2013,08,23,04,29,13.00
2013,08,23,04,30,12.90
2013,08,23,04,31,12.90
2013,08,23,04,32,12.90
2013,08,23,04,33,12.90
2013,08,23,04,34,12.90
2013,08,23,04,35,12.90
2013,08,23,04,36,13.00
2013,08,23,04,37,13.00
2013,08,23,04,38,13.00
2013,08,23,04,39,13.00
2013,08,23,04,40,13.00
2013,08,23,04,41,13.00
2013,08,23,04,42,13.10
2013,08,23,04,43,13.10
2013,08,23,04,44,13.10
2013,08,23,04,45,13.10
2013,08,23,04,46,13.10
2013,08,23,04,47,13.00
2013,08,23,04,48,13.00
2013,08,23,04,49,13.00
2013,08,23,04,50,13.00
2013,08,23,04,51,13.00
2013,08,23,04,52,13.00
2013,08,23,04,53,13.00
2013,08,23,04,54,13.00
2013,08,23,04,55,13.00
2013,08,23,04,56,13.00
2013,08,23,04,57,13.00
2013,08,23,04,58,13.00
2013,08,23,04,59,13.00
2013,08,23,05,00,13.00
2013,08,23,05,01,13.00
2013,08,23,05,02,13.00
2013,08,23,05,03,13.00
2013,08,23,05,04,13.00
2013,08,23,05,05,13.00
2013,08,23,05,06,13.00
2013,08,23,05,07,13.00
2013,08,23,05,08,13.00
2013,08,23,05,09,13.00
2013,08,23,05,10,13.00
2013,08,23,05,11,13.00
2013,08,23,05,12,13.00
2013,08,23,05,13,13.00
2013,08,23,05,14,13.00
2013,08,23,05,15,13.00
2013,08,23,05,16,13.00
2013,08,23,05,17,13.00
2013,08,23,05,18,13.00
2013,08,23,05,19,13.00
2013,08,23,05,20,12.90
2013,08,23,05,21,12.90
2013,08,23,05,22,12.90
2013,08,23,05,23,12.90
2013,08,23,05,24,12.90
2013,08,23,05,25,12.90
2013,08,23,05,26,12.90
2013,08,23,05,27,12.90
2013,08,23,05,28,12.90
2013,08,23,05,29,12.90
2013,08,23,05,30,12.90
2013,08,23,05,31,12.90
2013,08,23,05,32,12.90
2013,08,23,05,33,12.90
2013,08,23,05,34,12.90
2013,08,23,05,35,12.90
2013,08,23,05,36,12.90
2013,08,23,05,37,12.90
2013,08,23,05,38,12.90
2013,08,23,05,39,12.90
2013,08,23,05,40,12.90
2013,08,23,05,41,12.90
2013,08,23,05,42,12.90
2013,08,23,05,43,12.90
2013,08,23,05,44,12.90
2013,08,23,05,45,13.00
2013,08,23,05,46,13.00
2013,08,23,05,47,13.00
2013,08,23,05,48,13.00
2013,08,23,05,49,13.00
2013,08,23,05,50,12.90
2013,08,23,05,51,12.90
2013,08,23,05,52,12.90
2013,08,23,05,53,12.90
2013,08,23,05,54,12.80
2013,08,23,05,55,12.90
2013,08,23,05,56,12.90
2013,08,23,05,57,12.90
2013,08,23,05,58,12.90
2013,08,23,05,59,12.90
2013,08,23,06,00,12.90
2013,08,23,06,01,12.90
2013,08,23,06,02,12.90
2013,08,23,06,03,12.90
2013,08,23,06,04,12.80
2013,08,23,06,05,12.80
2013,08,23,06,06,12.80
2013,08,23,06,07,12.80
2013,08,23,06,08,12.70
2013,08,23,06,09,12.70
2013,08,23,06,10,12.70
2013,08,23,06,11,12.70
2013,08,23,06,12,12.70
2013,08,23,06,13,12.70
2013,08,23,06,14,12.70
2013,08,23,06,15,12.70
2013,08,23,06,16,12.70
2013,08,23,06,17,12.70
2013,08,23,06,18,12.70
2013,08,23,06,19,12.70
2013,08,23,06,20,12.70
2013,08,23,06,21,12.70
2013,08,23,06,22,12.70
2013,08,23,06,23,12.70
2013,08,23,06,24,12.70
2013,08,23,06,25,12.70
2013,08,23,06,26,12.70
2013,08,23,06,27,12.70
2013,08,23,06,28,12.70
2013,08,23,06,29,12.70
2013,08,23,06,30,12.70
2013,08,23,06,31,12.70
2013,08,23,06,32,12.70
2013,08,23,06,33,12.70
2013,08,23,06,34,12.70
2013,08,23,06,35,12.70
2013,08,23,06,36,12.70
2013,08,23,06,37,12.70
2013,08,23,06,38,12.70
2013,08,23,06,39,12.70
2013,08,23,06,40,12.70
2013,08,23,06,41,12.70
2013,08,23,06,42,12.70
2013,08,23,06,43,12.70
2013,08,23,06,44,12.70
2013,08,23,06,45,12.70
2013,08,23,06,46,12.70
2013,08,23,06,47,12.80
2013,08,23,06,48,12.80
2013,08,23,06,49,12.90
2013,08,23,06,50,12.90
2013,08,23,06,51,12.90
2013,08,23,06,52,12.90
2013,08,23,06,53,12.90
2013,08,23,06,54,12.90
2013,08,23,06,55,12.90
2013,08,23,06,56,12.90
2013,08,23,06,57,12.80
2013,08,23,06,58,12.80
2013,08,23,06,59,12.80
2013,08,23,07,00,12.80
2013,08,23,07,01,12.70
2013,08,23,07,02,12.70
2013,08,23,07,03,12.70
2013,08,23,07,04,12.80
2013,08,23,07,05,12.80
2013,08,23,07,06,12.80
2013,08,23,07,07,12.80
2013,08,23,07,08,12.80
2013,08,23,07,09,12.80
2013,08,23,07,10,12.80
2013,08,23,07,11,12.90
2013,08,23,07,12,12.90
2013,08,23,07,13,12.90
2013,08,23,07,14,12.90
2013,08,23,07,15,13.00
2013,08,23,07,16,13.00
2013,08,23,07,17,13.00
2013,08,23,07,18,13.10
2013,08,23,07,19,13.10
2013,08,23,07,20,13.10
2013,08,23,07,21,13.20
2013,08,23,07,22,13.30
2013,08,23,07,23,13.30
2013,08,23,07,24,13.30
2013,08,23,07,25,13.40
2013,08,23,07,26,13.40
2013,08,23,07,27,13.50
2013,08,23,07,28,13.60
2013,08,23,07,29,13.60
2013,08,23,07,30,13.70
2013,08,23,07,31,13.70
2013,08,23,07,32,13.80
2013,08,23,07,33,13.80
2013,08,23,07,34,13.90
2013,08,23,07,35,14.00
2013,08,23,07,36,14.00
2013,08,23,07,37,14.10
2013,08,23,07,38,14.20
2013,08,23,07,39,14.20
2013,08,23,07,40,14.30
2013,08,23,07,41,14.30
2013,08,23,07,42,14.40
2013,08,23,07,43,14.40
2013,08,23,07,44,14.50
2013,08,23,07,45,14.60
2013,08,23,07,46,14.60
2013,08,23,07,47,14.70
2013,08,23,07,48,14.70
2013,08,23,07,49,14.80
2013,08,23,07,50,14.80
2013,08,23,07,51,14.80
2013,08,23,07,52,14.90
2013,08,23,07,53,15.00
2013,08,23,07,54,15.10
2013,08,23,07,55,15.20
2013,08,23,07,56,15.30
2013,08,23,07,57,15.40
2013,08,23,07,58,15.50
2013,08,23,07,59,15.60
2013,08,23,08,00,15.70
2013,08,23,08,01,15.70
2013,08,23,08,02,15.80
2013,08,23,08,03,15.90
2013,08,23,08,04,16.00
2013,08,23,08,05,16.10
2013,08,23,08,06,16.20
2013,08,23,08,07,16.20
2013,08,23,08,08,16.30
2013,08,23,08,09,16.30
2013,08,23,08,10,16.40
2013,08,23,08,11,16.50
2013,08,23,08,12,16.60
2013,08,23,08,13,16.60
2013,08,23,08,14,16.60
2013,08,23,08,15,16.70
2013,08,23,08,16,16.70
2013,08,23,08,17,16.70
2013,08,23,08,18,16.80
2013,08,23,08,19,16.80
2013,08,23,08,20,16.80
2013,08,23,08,21,16.80
2013,08,23,08,22,16.80
2013,08,23,08,23,16.70
2013,08,23,08,24,16.70
2013,08,23,08,25,16.70
2013,08,23,08,26,16.60
2013,08,23,08,27,16.60
2013,08,23,08,28,16.60
2013,08,23,08,29,16.60
2013,08,23,08,30,16.60
2013,08,23,08,31,16.60
2013,08,23,08,32,16.60
2013,08,23,08,33,16.70
2013,08,23,08,34,16.80
2013,08,23,08,35,16.90
2013,08,23,08,36,17.00
2013,08,23,08,37,17.10
2013,08,23,08,38,17.10
2013,08,23,08,39,17.20
2013,08,23,08,40,17.30
2013,08,23,08,41,17.40
2013,08,23,08,42,17.40
2013,08,23,08,43,17.50
2013,08,23,08,44,17.60
2013,08,23,08,45,17.60
2013,08,23,08,46,17.70
2013,08,23,08,47,17.70
2013,08,23,08,48,17.70
2013,08,23,08,49,17.70
2013,08,23,08,50,17.70
2013,08,23,08,51,17.70
2013,08,23,08,52,17.60
2013,08,23,08,53,17.60
2013,08,23,08,54,17.50
2013,08,23,08,55,17.50
2013,08,23,08,56,17.40
2013,08,23,08,57,17.40
2013,08,23,08,58,17.40
2013,08,23,08,59,17.40
2013,08,23,09,00,17.40
2013,08,23,09,01,17.50
2013,08,23,09,02,17.50
2013,08,23,09,03,17.50
2013,08,23,09,04,17.60
2013,08,23,09,05,17.60
2013,08,23,09,06,17.70
2013,08,23,09,07,17.70
2013,08,23,09,08,17.80
2013,08,23,09,09,17.90
2013,08,23,09,10,17.90
2013,08,23,09,11,18.00
2013,08,23,09,12,18.00
2013,08,23,09,13,18.10
2013,08,23,09,14,18.10
2013,08,23,09,15,18.20
2013,08,23,09,16,18.30
2013,08,23,09,17,18.30
2013,08,23,09,18,18.30
2013,08,23,09,19,18.30
2013,08,23,09,20,18.30
2013,08,23,09,21,18.40
2013,08,23,09,22,18.40
2013,08,23,09,23,18.40
2013,08,23,09,24,18.50
2013,08,23,09,25,18.60
2013,08,23,09,26,18.60
2013,08,23,09,27,18.70
2013,08,23,09,28,18.70
2013,08,23,09,29,18.80
2013,08,23,09,30,18.80
2013,08,23,09,31,18.80
2013,08,23,09,32,18.80
2013,08,23,09,33,18.90
2013,08,23,09,34,18.90
2013,08,23,09,35,18.90
2013,08,23,09,36,18.90
2013,08,23,09,37,18.90
2013,08,23,09,38,19.00
2013,08,23,09,39,19.10
2013,08,23,09,40,19.30
2013,08,23,09,41,19.40
2013,08,23,09,42,19.50
2013,08,23,09,43,19.60
2013,08,23,09,44,19.70
2013,08,23,09,45,19.80
2013,08,23,09,46,19.80
2013,08,23,09,47,19.90
2013,08,23,09,48,19.90
2013,08,23,09,49,19.90
2013,08,23,09,50,19.90
2013,08,23,09,51,19.90
2013,08,23,09,52,19.80
2013,08,23,09,53,19.80
2013,08,23,09,54,19.80
2013,08,23,09,55,19.80
2013,08,23,09,56,19.90
2013,08,23,09,57,20.00
2013,08,23,09,58,20.10
2013,08,23,09,59,20.10
2013,08,23,10,00,20.20
2013,08,23,10,01,20.20
2013,08,23,10,02,20.20
2013,08,23,10,03,20.20
2013,08,23,10,04,20.10
2013,08,23,10,05,20.10
2013,08,23,10,06,20.00
2013,08,23,10,07,20.00
2013,08,23,10,08,20.00
2013,08,23,10,09,20.10
2013,08,23,10,10,20.20
2013,08,23,10,11,20.20
2013,08,23,10,12,20.20
2013,08,23,10,13,20.20
2013,08,23,10,14,20.30
2013,08,23,10,15,20.50
2013,08,23,10,16,20.60
2013,08,23,10,17,20.50
2013,08,23,10,18,20.50
2013,08,23,10,19,20.40
2013,08,23,10,20,20.40
2013,08,23,10,21,20.40
2013,08,23,10,22,20.50
2013,08,23,10,23,20.60
2013,08,23,10,24,20.80
2013,08,23,10,25,20.90
2013,08,23,10,26,21.00
2013,08,23,10,27,21.10
2013,08,23,10,28,21.10
2013,08,23,10,29,21.00
2013,08,23,10,30,20.80
2013,08,23,10,31,20.70
2013,08,23,10,32,20.60
2013,08,23,10,33,20.60
2013,08,23,10,34,20.70
2013,08,23,10,35,20.80
2013,08,23,10,36,20.80
2013,08,23,10,37,20.80
2013,08,23,10,38,20.80
2013,08,23,10,39,20.80
2013,08,23,10,40,20.80
2013,08,23,10,41,20.80
2013,08,23,10,42,20.90
2013,08,23,10,43,20.90
2013,08,23,10,44,21.00
2013,08,23,10,45,21.10
2013,08,23,10,46,21.30
2013,08,23,10,47,21.30
2013,08,23,10,48,21.20
2013,08,23,10,49,21.10
2013,08,23,10,50,21.00
2013,08,23,10,51,20.90
2013,08,23,10,52,20.90
2013,08,23,10,53,20.80
2013,08,23,10,54,20.80
2013,08,23,10,55,20.80
2013,08,23,10,56,20.70
2013,08,23,10,57,20.70
2013,08,23,10,58,20.60
2013,08,23,10,59,20.70
2013,08,23,11,00,20.80
2013,08,23,11,01,20.90
2013,08,23,11,02,20.90
2013,08,23,11,03,20.90
2013,08,23,11,04,20.80
2013,08,23,11,05,20.80
2013,08,23,11,06,20.90
2013,08,23,11,07,20.90
2013,08,23,11,08,21.00
2013,08,23,11,09,21.00
2013,08,23,11,10,21.10
2013,08,23,11,11,21.00
2013,08,23,11,12,20.90
2013,08,23,11,13,20.70
2013,08,23,11,14,20.60
2013,08,23,11,15,20.60
2013,08,23,11,16,20.50
2013,08,23,11,17,20.50
2013,08,23,11,18,20.40
2013,08,23,11,19,20.30
2013,08,23,11,20,20.20
2013,08,23,11,21,19.90
2013,08,23,11,22,19.80
2013,08,23,11,23,19.80
2013,08,23,11,24,19.70
2013,08,23,11,25,19.80
2013,08,23,11,26,19.90
2013,08,23,11,27,20.00
2013,08,23,11,28,20.10
2013,08,23,11,29,20.30
2013,08,23,11,30,20.50
2013,08,23,11,31,20.60
2013,08,23,11,32,20.60
2013,08,23,11,33,20.70
2013,08,23,11,34,20.80
2013,08,23,11,35,20.80
2013,08,23,11,36,20.50
2013,08,23,11,37,20.30
2013,08,23,11,38,20.10
2013,08,23,11,39,19.90
2013,08,23,11,40,19.80
2013,08,23,11,41,19.80
2013,08,23,11,42,19.70
2013,08,23,11,43,19.60
2013,08,23,11,44,19.60
2013,08,23,11,45,19.60
2013,08,23,11,46,19.60
2013,08,23,11,47,19.60
2013,08,23,11,48,19.70
2013,08,23,11,49,19.90
2013,08,23,11,50,19.90
2013,08,23,11,51,20.00
2013,08,23,11,52,20.10
2013,08,23,11,53,20.10
2013,08,23,11,54,20.10
2013,08,23,11,55,20.00
2013,08,23,11,56,20.00
2013,08,23,11,57,19.90
2013,08,23,11,58,19.80
2013,08,23,11,59,19.80
2013,08,23,12,00,19.80
2013,08,23,12,01,19.80
2013,08,23,12,02,19.80
2013,08,23,12,03,19.80
2013,08,23,12,04,19.80
2013,08,23,12,05,19.90
2013,08,23,12,06,20.00
2013,08,23,12,07,20.10
2013,08,23,12,08,20.10
2013,08,23,12,09,20.20
2013,08,23,12,10,20.30
2013,08,23,12,11,20.40
2013,08,23,12,12,20.50
2013,08,23,12,13,20.50
2013,08,23,12,14,20.60
2013,08,23,12,15,20.80
2013,08,23,12,16,21.00
2013,08,23,12,17,21.20
2013,08,23,12,18,21.30
2013,08,23,12,19,21.50
2013,08,23,12,20,21.60
2013,08,23,12,21,21.70
2013,08,23,12,22,21.80
2013,08,23,12,23,22.00
2013,08,23,12,24,22.10
2013,08,23,12,25,22.20
2013,08,23,12,26,22.30
2013,08,23,12,27,22.30
2013,08,23,12,28,22.30
2013,08,23,12,29,22.30
2013,08,23,12,30,22.30
2013,08,23,12,31,22.30
2013,08,23,12,32,22.30
2013,08,23,12,33,22.30
2013,08,23,12,34,22.40
2013,08,23,12,35,22.40
2013,08,23,12,36,22.40
2013,08,23,12,37,22.40
2013,08,23,12,38,22.40
2013,08,23,12,39,22.40
2013,08,23,12,40,22.30
2013,08,23,12,41,22.30
2013,08,23,12,42,22.20
2013,08,23,12,43,22.20
2013,08,23,12,44,22.10
2013,08,23,12,45,22.00
2013,08,23,12,46,21.90
2013,08,23,12,47,21.90
2013,08,23,12,48,21.80
2013,08,23,12,49,21.70
2013,08,23,12,50,21.70
2013,08,23,12,51,21.70
2013,08,23,12,52,21.70
2013,08,23,12,53,21.70
2013,08,23,12,54,21.70
2013,08,23,12,55,21.80
2013,08,23,12,56,21.80
2013,08,23,12,57,21.80
2013,08,23,12,58,21.80
2013,08,23,12,59,21.80
2013,08,23,13,00,21.80
2013,08,23,13,01,21.90
2013,08,23,13,02,22.00
2013,08,23,13,03,22.00
2013,08,23,13,04,22.10
2013,08,23,13,05,22.10
2013,08,23,13,06,22.10
2013,08,23,13,07,22.10
2013,08,23,13,08,22.10
2013,08,23,13,09,22.10
2013,08,23,13,10,22.20
2013,08,23,13,11,22.10
2013,08,23,13,12,22.10
2013,08,23,13,13,22.00
2013,08,23,13,14,22.00
2013,08,23,13,15,21.90
2013,08,23,13,16,21.90
2013,08,23,13,17,22.00
2013,08,23,13,18,22.20
2013,08,23,13,19,22.30
2013,08,23,13,20,22.50
2013,08,23,13,21,22.50
2013,08,23,13,22,22.50
2013,08,23,13,23,22.40
2013,08,23,13,24,22.40
2013,08,23,13,25,22.40
2013,08,23,13,26,22.40
2013,08,23,13,27,22.40
2013,08,23,13,28,22.50
2013,08,23,13,29,22.50
2013,08,23,13,30,22.50
2013,08,23,13,31,22.40
2013,08,23,13,32,22.30
2013,08,23,13,33,22.30
2013,08,23,13,34,22.20
2013,08,23,13,35,22.10
2013,08,23,13,36,22.10
2013,08,23,13,37,22.10
2013,08,23,13,38,22.10
2013,08,23,13,39,22.10
2013,08,23,13,40,22.10
2013,08,23,13,41,22.00
2013,08,23,13,42,22.00
2013,08,23,13,43,21.90
2013,08,23,13,44,21.90
2013,08,23,13,45,22.00
2013,08,23,13,46,22.10
2013,08,23,13,47,22.10
2013,08,23,13,48,22.20
2013,08,23,13,49,22.30
2013,08,23,13,50,22.40
2013,08,23,13,51,22.40
2013,08,23,13,52,22.40
2013,08,23,13,53,22.40
2013,08,23,13,54,22.30
2013,08,23,13,55,22.30
2013,08,23,13,56,22.20
2013,08,23,13,57,22.10
2013,08,23,13,58,22.00
2013,08,23,13,59,22.00
2013,08,23,14,00,22.00
2013,08,23,14,01,22.10
2013,08,23,14,02,22.10
2013,08,23,14,03,22.20
2013,08,23,14,04,22.20
2013,08,23,14,05,22.20
2013,08,23,14,06,22.20
2013,08,23,14,07,22.10
2013,08,23,14,08,22.10
2013,08,23,14,09,22.10
2013,08,23,14,10,22.10
2013,08,23,14,11,22.20
2013,08,23,14,12,22.20
2013,08,23,14,13,22.20
2013,08,23,14,14,22.20
2013,08,23,14,15,22.20
2013,08,23,14,16,22.20
2013,08,23,14,17,22.30
2013,08,23,14,18,22.30
2013,08,23,14,19,22.40
2013,08,23,14,20,22.50
2013,08,23,14,21,22.60
2013,08,23,14,22,22.70
2013,08,23,14,23,22.80
2013,08,23,14,24,22.90
2013,08,23,14,25,22.90
2013,08,23,14,26,22.90
2013,08,23,14,27,22.80
2013,08,23,14,28,22.80
2013,08,23,14,29,22.80
2013,08,23,14,30,22.80
2013,08,23,14,31,22.80
2013,08,23,14,32,22.80
2013,08,23,14,33,22.80
2013,08,23,14,34,22.70
2013,08,23,14,35,22.60
2013,08,23,14,36,22.50
2013,08,23,14,37,22.50
2013,08,23,14,38,22.30
2013,08,23,14,39,22.20
2013,08,23,14,40,22.10
2013,08,23,14,41,22.00
2013,08,23,14,42,21.90
2013,08,23,14,43,21.80
2013,08,23,14,44,21.70
2013,08,23,14,45,21.70
2013,08,23,14,46,21.70
2013,08,23,14,47,21.70
2013,08,23,14,48,21.70
2013,08,23,14,49,21.70
2013,08,23,14,50,21.70
2013,08,23,14,51,21.70
2013,08,23,14,52,21.70
2013,08,23,14,53,21.70
2013,08,23,14,54,21.70
2013,08,23,14,55,21.60
2013,08,23,14,56,21.60
2013,08,23,14,57,21.50
2013,08,23,14,58,21.40
2013,08,23,14,59,21.40
2013,08,23,15,00,21.30
2013,08,23,15,01,21.40
2013,08,23,15,02,21.50
2013,08,23,15,03,21.70
2013,08,23,15,04,21.80
2013,08,23,15,05,21.90
2013,08,23,15,06,22.00
2013,08,23,15,07,22.10
2013,08,23,15,08,22.00
2013,08,23,15,09,22.00
2013,08,23,15,10,21.90
2013,08,23,15,11,21.80
2013,08,23,15,12,21.70
2013,08,23,15,13,21.70
2013,08,23,15,14,21.70
2013,08,23,15,15,21.70
2013,08,23,15,16,21.80
2013,08,23,15,17,21.80
2013,08,23,15,18,21.90
2013,08,23,15,19,22.00
2013,08,23,15,20,22.10
2013,08,23,15,21,22.10
2013,08,23,15,22,22.10
2013,08,23,15,23,22.10
2013,08,23,15,24,22.00
2013,08,23,15,25,22.00
2013,08,23,15,26,22.00
2013,08,23,15,27,22.00
2013,08,23,15,28,22.00
2013,08,23,15,29,22.10
2013,08,23,15,30,22.10
2013,08,23,15,31,22.10
2013,08,23,15,32,22.00
2013,08,23,15,33,21.90
2013,08,23,15,34,21.80
2013,08,23,15,35,21.70
2013,08,23,15,36,21.70
2013,08,23,15,37,21.70
2013,08,23,15,38,21.60
2013,08,23,15,39,21.60
2013,08,23,15,40,21.60
2013,08,23,15,41,21.70
2013,08,23,15,42,21.70
2013,08,23,15,43,21.70
2013,08,23,15,44,21.70
2013,08,23,15,45,21.70
2013,08,23,15,46,21.80
2013,08,23,15,47,21.80
2013,08,23,15,48,21.80
2013,08,23,15,49,21.90
2013,08,23,15,50,21.90
2013,08,23,15,51,21.90
2013,08,23,15,52,22.00
2013,08,23,15,53,22.10
2013,08,23,15,54,22.20
2013,08,23,15,55,22.20
2013,08,23,15,56,22.20
2013,08,23,15,57,22.30
2013,08,23,15,58,22.40
2013,08,23,15,59,22.40
2013,08,23,16,00,22.50
2013,08,23,16,01,22.60
2013,08,23,16,02,22.70
2013,08,23,16,03,22.70
2013,08,23,16,04,22.70
2013,08,23,16,05,22.70
2013,08,23,16,06,22.70
2013,08,23,16,07,22.70
2013,08,23,16,08,22.60
2013,08,23,16,09,22.70
2013,08,23,16,10,22.70
2013,08,23,16,11,22.60
2013,08,23,16,12,22.60
2013,08,23,16,13,22.50
2013,08,23,16,14,22.40
2013,08,23,16,15,22.30
2013,08,23,16,16,22.30
2013,08,23,16,17,22.20
2013,08,23,16,18,22.20
2013,08,23,16,19,22.20
2013,08,23,16,20,22.20
2013,08,23,16,21,22.30
2013,08,23,16,22,22.40
2013,08,23,16,23,22.40
2013,08,23,16,24,22.50
2013,08,23,16,25,22.50
2013,08,23,16,26,22.50
2013,08,23,16,27,22.60
2013,08,23,16,28,22.60
2013,08,23,16,29,22.60
2013,08,23,16,30,22.70
2013,08,23,16,31,22.70
2013,08,23,16,32,22.60
2013,08,23,16,33,22.60
2013,08,23,16,34,22.60
2013,08,23,16,35,22.60
2013,08,23,16,36,22.50
2013,08,23,16,37,22.40
2013,08,23,16,38,22.30
2013,08,23,16,39,22.30
2013,08,23,16,40,22.30
2013,08,23,16,41,22.30
2013,08,23,16,42,22.20
2013,08,23,16,43,22.20
2013,08,23,16,44,22.20
2013,08,23,16,45,22.20
2013,08,23,16,46,22.20
2013,08,23,16,47,22.20
2013,08,23,16,48,22.10
2013,08,23,16,49,22.10
2013,08,23,16,50,22.00
2013,08,23,16,51,21.90
2013,08,23,16,52,21.80
2013,08,23,16,53,21.80
2013,08,23,16,54,21.70
2013,08,23,16,55,21.70
2013,08,23,16,56,21.70
2013,08,23,16,57,21.70
2013,08,23,16,58,21.70
2013,08,23,16,59,21.70
2013,08,23,17,00,21.70
2013,08,23,17,01,21.70
2013,08,23,17,02,21.80
2013,08,23,17,03,21.80
2013,08,23,17,04,21.80
2013,08,23,17,05,21.70
2013,08,23,17,06,21.50
2013,08,23,17,07,21.40
2013,08,23,17,08,21.30
2013,08,23,17,09,21.20
2013,08,23,17,10,21.20
2013,08,23,17,11,21.20
2013,08,23,17,12,21.10
2013,08,23,17,13,21.10
2013,08,23,17,14,21.10
2013,08,23,17,15,21.10
2013,08,23,17,16,21.10
2013,08,23,17,17,21.10
2013,08,23,17,18,21.00
2013,08,23,17,19,20.90